Hourly Data Report for May 19, 2021

OTTAWA INTL A
ONTARIO
Current Station Operator: NAVCAN

45°19'00.000" N
75°40'00.000" W
114.90 m
6106001
71628
YOW

Download Data

Hourly Data (May 2021)
Hourly Data Report for May 19, 2021
TIME
LST
Temp Definition
°C
Dew Point Definition
°C
Rel Hum Definition
%
Precip. Amount Definition
mm

Wind Dir Definition
10's deg

Wind Spd Definition
km/h
Visibility Definition
km
Stn Press Definition
kPa
Hmdx Definition


Wind Chill Definition


Weather Definition


00:00 15.7 7.5 58   31 6 24.1 101.02     LegendNANA
01:00 14.1 7.2 63   36 7 24.1 101.07     Clear
02:00 12.7 7.1 68   5 3 24.1 101.05     LegendNANA
03:00 12.8 7.1 68   3 9 24.1 101.08     LegendNANA
04:00 12.3 7.7 73   33 4 24.1 101.16     Mainly Clear
05:00 10.5 8.2 85   34 3 24.1 101.22     LegendNANA
06:00 13.9 10.1 78   26 7 24.1 101.29     LegendNANA
07:00 17.9 9.6 58   36 2 24.1 101.34     Clear
08:00 19.9 9.7 51   6 3 24.1 101.36     LegendNANA
09:00 22.6 7.8 38   25 4 24.1 101.38     LegendNANA
10:00 24.4 7.8 34   18 3 24.1 101.38 25   Mainly Clear
11:00 26.9 8.5 31   11 5 24.1 101.32 28   LegendNANA
12:00 27.9 9.9 32   25 11 24.1 101.27 29   LegendNANA
13:00 28.4 8.5 28   20 8 24.1 101.23 29   Mainly Clear
14:00 29.5 10.0 29   36 2 24.1 101.20 31   LegendNANA
15:00 29.9 9.3 27   21 12 24.1 101.15 31   LegendNANA
16:00 28.7 10.9 32   19 9 24.1 101.16 30   Mostly Cloudy
17:00 28.2 11.6 35   21 14 24.1 101.18 30   LegendNANA
18:00 26.7 11.3 38   20 10 24.1 101.18 29   LegendNANA
19:00 25.1 11.5 42   19 9 24.1 101.19 27   Mostly Cloudy
20:00 23.7 11.7 46   20 11 24.1 101.22 26   LegendNANA
21:00 21.6 11.1 51   20 9 24.1 101.25     LegendNANA
22:00 20.2 10.9 54   21 10 24.1 101.27     Mainly Clear
23:00 20.0 10.9 55   20 7 24.1 101.27     LegendNANA

Notes on Data Quality.

Legend

  • E = Estimated
  • M = Missing
  • NA = Not Available*
  • [empty] = Indicates an unobserved value
Date modified: